星链-35539(STARLINK-35539)

导读

STARLINK-35539是美国SpaceX星链星座的一员,于2025年10月8日发射入轨。星链计划旨在构建全球卫星互联网星座,为全球偏远地区、高需求场景提供高速低延迟宽带服务。该卫星加入后,进一步扩充了星链低轨星座的规模,提升星座服务覆盖能力与网络容量,支撑星链全球互联服务的持续拓展。

Basic Information
目录编号:
65915
目录名称:
STARLINK-35539
国际标识:
2025-225F
轨道中心:
EARTH
卫星名称:
星链-35539
卫星全名:
星链-35539(STARLINK-35539)
卫星状态:
在轨 (已飞行248 天)
发射日期:
2025-10-08 UTC
国别 :
美国 (US)
星等 :
--
Orbit Information
数据来源 国际轨道数据 AOE轨道数据
星历时间 2026-06-13T10:05:09+0800
12小时前
查看轨道信息
2026-06-13T00:00:00+0800
22小时前
查看轨道信息
半长轴 6853.296km 6853.373km
偏心率 0.0001192 0.0001423
轨道倾角 53.159° 53.159°
近地点辐角 98.626° 91.498°
升交点赤经 82.603° 84.553°
平近点角 261.487° 112.313°
近地点 474.342km 474.26km
远地点 475.976km 476.212km
周期 94.104分钟 94.106分钟
每日圈数 15.30219 15.301933
Detailed Information
固有亮度:
5
最大亮度:
2.5
卫星平台:
Starlink V1.0
覆盖范围:
全球
运营商:
太空探索技术公司
运营商所在国:
美国
制造商(研发单位):
太空探索技术公司
制造商所在国:
美国
使用方式:
暂无
Satellite Introduction
Starlink 计划是 SpaceX 推出的全球卫星互联网项目,通过发射低轨道卫星,为全球尤其是偏远地区提供高速、低延迟的互联网服务。自 2019 年起,Starlink 已部署数千颗卫星,旨在缩小全球数字鸿沟,推动互联网普及。该项目还为军事、航空等行业提供通信支持,带来广泛经济效益。
2D Orbit Map
3D Orbit Map
Orbit Altitude Analysis Chart
Orbit Inclination Analysis Chart
Orbit Comprehensive Analysis Chart
View Comprehensive Chart